sampling_time,wmo_synop_id,msc_id,stn_nam,stn_elev,lat,long,stn_typ,date_tm,rpt_typ,result_time,crnt_buoy_lat,crnt_buoy_lat_qa_summary,crnt_buoy_long,crnt_buoy_long_qa_summary,avg_air_temp_pst10mts,avg_air_temp_pst10mts_qa_summary,avg_sea_sfc_temp_pst10mts,avg_sea_sfc_temp_pst10mts_qa_summary,avg_batry_volt_pst10mts,avg_batry_volt_pst10mts_qa_summary,avg_solr_panl_crnt_pst10mts,avg_solr_panl_crnt_pst10mts_qa_summary,avg_wtr_lvl_snsr_volt_pst10mts,avg_wtr_lvl_snsr_volt_pst10mts_qa_summary,avg_wave_hgt_pst20mts,avg_wave_hgt_pst20mts_qa_summary,pk_wave_hgt_pst20mts,pk_wave_hgt_pst20mts_qa_summary,sig_wave_pd_pst20mts,sig_wave_pd_pst20mts_qa_summary,sig_wave_hgt_pst20mts,sig_wave_hgt_pst20mts_qa_summary,avg_max_wave_hgt_pst20mts,avg_max_wave_hgt_pst20mts_qa_summary,avg_max_wave_pd_pst20mts,avg_max_wave_pd_pst20mts_qa_summary,avg_wave_pd_pst20mts,avg_wave_pd_pst20mts_qa_summary,pk_wave_pd_pst20mts,pk_wave_pd_pst20mts_qa_summary,avg_stn_pres_pst10mts,avg_stn_pres_pst10mts_qa_summary,avg_wnd_spd_pst10mts,avg_wnd_spd_pst10mts_qa_summary,avg_wnd_dir_pst10mts,avg_wnd_dir_pst10mts_qa_summary,max_avg_wnd_spd_pst10mts,max_avg_wnd_spd_pst10mts_qa_summary,wnd_snsr_vert_disp,wnd_snsr_vert_disp_qa_summary,pres_tend_amt_pst3hrs,pres_tend_amt_pst3hrs_data_flag,pres_tend_char_pst3hrs,pres_tend_char_pst3hrs_data_flag,avg_mslp_pst10mts,avg_mslp_pst10mts_data_flag,avg_stn_pres_pst10mts_1,avg_stn_pres_pst10mts_1_qa_summary,avg_stn_pres_pst10mts_2,avg_stn_pres_pst10mts_2_qa_summary,avg_wnd_spd_pst10mts_1,avg_wnd_spd_pst10mts_1_qa_summary,avg_wnd_spd_pst10mts_2,avg_wnd_spd_pst10mts_2_qa_summary,avg_wnd_dir_pst10mts_1,avg_wnd_dir_pst10mts_1_qa_summary,avg_wnd_dir_pst10mts_2,avg_wnd_dir_pst10mts_2_qa_summary,max_avg_wnd_spd_pst10mts_1,max_avg_wnd_spd_pst10mts_1_qa_summary,max_avg_wnd_spd_pst10mts_2,max_avg_wnd_spd_pst10mts_2_qa_summary
2021-10-17T00:00:00Z,44488,9302000,EAST CHEDABUCTO BAY,0,45.445,-60.9538,18,2021-10-17T00:00:00.000Z,108,2021-10-17T00:04:05.960Z,45.445479999999996,100,-60.95373000000001,100,13.4,100,14.6,100,12.7,100,0.0,100,3.6,100,0.2,100,0.5,100,7.3,100,0.3,100,0.4,100,8.0,100,5.5,100,11.8,100,1015.3,100,2.9,100,262,100,4.7,100,5,100,0.8,1,0,1,1015.3,1,1015.3,100,1015.3,100,2.9,100,2.9,100,262,100,265,100,4.7,100,4.7,100
2021-10-17T00:10:00Z,44488,9302000,EAST CHEDABUCTO BAY,0,45.445,-60.9538,18,2021-10-17T00:10:00.000Z,110,2021-10-17T00:13:08.195Z,,-1,,-1,14.2,100,15.4,100,12.7,100,0.0,100,3.6,100,,-1,,-1,,-1,,-1,,-1,,-1,,-1,,-1,1015.4,100,4.7,100,265,100,5.8,100,5,100,0.8,1,1,1,1015.4,1,1015.4,100,1015.4,100,4.7,100,5.0,100,265,100,269,100,5.8,100,5.8,100
2021-10-17T00:20:00Z,44488,9302000,EAST CHEDABUCTO BAY,0,45.445,-60.9538,18,2021-10-17T00:20:00.000Z,110,2021-10-17T00:25:09.769Z,45.44547,100,-60.95373000000001,100,13.5,100,14.6,100,12.7,100,0.0,100,3.6,100,,-1,,-1,,-1,,-1,,-1,,-1,,-1,,-1,1015.4,100,3.2,100,264,100,5.0,100,5,100,0.6,1,1,1,1015.4,1,1015.4,100,1015.4,100,3.2,100,3.2,100,264,100,266,100,5.0,100,5.4,100
2021-10-17T00:30:00Z,44488,9302000,EAST CHEDABUCTO BAY,0,45.445,-60.9538,18,2021-10-17T00:30:00.000Z,110,2021-10-17T00:33:11.556Z,45.44548,100,-60.95373000000001,100,13.5,100,14.6,100,12.7,100,0.0,100,3.6,100,,-1,,-1,,-1,,-1,,-1,,-1,,-1,,-1,1015.4,100,2.9,100,261,100,4.3,100,5,100,0.5,1,1,1,1015.4,1,1015.4,100,1015.4,100,2.9,100,2.9,100,261,100,264,100,4.3,100,4.7,100
2021-10-17T00:40:00Z,44488,9302000,EAST CHEDABUCTO BAY,0,45.445,-60.9538,18,2021-10-17T00:40:00.000Z,110,2021-10-17T00:44:16.456Z,45.445479999999996,100,-60.95373000000001,100,13.8,100,14.6,100,12.6,100,0.0,100,3.6,100,,-1,,-1,,-1,,-1,,-1,,-1,,-1,,-1,1015.5,100,4.3,100,223,100,7.2,100,5,100,0.4,1,2,1,1015.5,1,1015.5,100,1015.4,100,4.3,100,4.3,100,223,100,226,100,7.2,100,7.2,100
2021-10-17T00:50:00Z,44488,9302000,EAST CHEDABUCTO BAY,0,45.445,-60.9538,18,2021-10-17T00:50:00.000Z,110,2021-10-17T00:53:15.297Z,45.44548,100,-60.95373000000001,100,14.0,100,14.6,100,12.6,100,0.0,100,3.6,100,,-1,,-1,,-1,,-1,,-1,,-1,,-1,,-1,1015.4,100,9.0,100,226,100,11.9,100,5,100,0.2,1,1,1,1015.4,1,1015.4,100,1015.4,100,9.0,100,9.0,100,226,100,230,100,11.9,100,11.9,100
2021-10-17T01:00:00Z,44488,9302000,EAST CHEDABUCTO BAY,0,45.445,-60.9538,18,2021-10-17T01:00:00.000Z,108,2021-10-17T01:04:22.024Z,45.4455,100,-60.95375,100,14.0,100,14.6,100,12.6,100,0.0,100,3.6,100,0.2,100,0.4,100,7.8,100,0.3,100,0.3,100,8.5,100,5.7,100,10.5,100,1015.3,100,10.1,100,214,100,11.9,100,5,100,0.1,1,1,1,1015.3,1,1015.3,100,1015.3,100,10.1,100,10.1,100,214,100,218,100,11.9,100,11.9,100
2021-10-17T01:10:00Z,44488,9302000,EAST CHEDABUCTO BAY,0,45.445,-60.9538,18,2021-10-17T01:10:00.000Z,110,2021-10-17T01:16:18.533Z,45.44548,100,-60.95372,100,14.1,100,14.6,100,12.7,100,0.0,100,3.6,100,,-1,,-1,,-1,,-1,,-1,,-1,,-1,,-1,1015.3,100,9.0,100,213,100,10.8,100,5,100,0.0,1,0,1,1015.3,1,1015.3,100,1015.3,100,9.0,100,9.0,100,213,100,217,100,10.8,100,11.2,100
2021-10-17T01:20:00Z,44488,9302000,EAST CHEDABUCTO BAY,0,45.445,-60.9538,18,2021-10-17T01:20:00.000Z,110,2021-10-17T01:23:17.595Z,45.445479999999996,100,-60.95375,100,14.0,100,14.6,100,12.7,100,0.0,100,3.6,100,,-1,,-1,,-1,,-1,,-1,,-1,,-1,,-1,1015.2,100,7.9,100,211,100,10.4,100,5,100,-0.1,1,4,1,1015.2,1,1015.2,100,1015.2,100,7.9,100,8.3,100,211,100,215,100,10.4,100,10.4,100
2021-10-17T01:30:00Z,44488,9302000,EAST CHEDABUCTO BAY,0,45.445,-60.9538,18,2021-10-17T01:30:00.000Z,110,2021-10-17T01:33:17.137Z,45.44547,100,-60.95375,100,14.0,100,14.6,100,12.7,100,0.0,100,3.6,100,,-1,,-1,,-1,,-1,,-1,,-1,,-1,,-1,1015.1,100,6.1,100,209,100,8.3,100,5,100,-0.3,1,8,1,1015.1,1,1015.1,100,1015.0,100,6.1,100,6.1,100,209,100,213,100,8.3,100,8.3,100
2021-10-17T01:40:00Z,44488,9302000,EAST CHEDABUCTO BAY,0,45.445,-60.9538,18,2021-10-17T01:40:00.000Z,110,2021-10-17T01:44:23.107Z,45.445479999999996,100,-60.95373000000001,100,14.0,100,14.6,100,12.6,100,0.0,100,3.6,100,,-1,,-1,,-1,,-1,,-1,,-1,,-1,,-1,1015.0,100,6.8,100,209,100,8.3,100,5,100,-0.3,1,8,1,1015.0,1,1015.0,100,1015.0,100,6.8,100,6.8,100,209,100,213,100,8.3,100,8.3,100
2021-10-17T01:50:00Z,44488,9302000,EAST CHEDABUCTO BAY,0,45.445,-60.9538,18,2021-10-17T01:50:00.000Z,110,2021-10-17T01:53:31.390Z,45.44548,100,-60.95375,100,14.0,100,14.6,100,12.6,100,0.0,100,3.6,100,,-1,,-1,,-1,,-1,,-1,,-1,,-1,,-1,1015.1,100,8.3,100,207,100,10.4,100,5,100,-0.3,1,8,1,1015.1,1,1015.1,100,1015.1,100,8.3,100,8.3,100,207,100,211,100,10.4,100,10.4,100
2021-10-17T02:00:00Z,44488,9302000,EAST CHEDABUCTO BAY,0,45.445,-60.9538,18,2021-10-17T02:00:00.000Z,108,2021-10-17T02:04:29.116Z,45.445479999999996,100,-60.95372,100,14.0,100,14.6,100,12.6,100,0.0,100,3.6,100,0.2,100,0.5,100,7.3,100,0.3,100,0.3,100,8.2,100,5.5,100,10.5,100,1015.2,100,9.7,100,199,100,11.2,100,5,100,-0.2,1,8,1,1015.2,1,1015.2,100,1015.1,100,9.7,100,9.7,100,199,100,203,100,11.2,100,11.5,100
2021-10-17T02:10:00Z,44488,9302000,EAST CHEDABUCTO BAY,0,45.445,-60.9538,18,2021-10-17T02:10:00.000Z,110,2021-10-17T02:16:35.713Z,45.44548,100,-60.95373000000001,100,14.0,100,14.6,100,12.6,100,0.0,100,3.6,100,,-1,,-1,,-1,,-1,,-1,,-1,,-1,,-1,1015.1,100,10.4,100,196,100,12.2,100,5,100,-0.2,1,8,1,1015.1,1,1015.1,100,1015.1,100,10.4,100,10.4,100,196,100,200,100,12.2,100,12.2,100
2021-10-17T02:20:00Z,44488,9302000,EAST CHEDABUCTO BAY,0,45.445,-60.9538,18,2021-10-17T02:20:00.000Z,110,2021-10-17T02:23:37.703Z,45.44552,100,-60.95375,100,13.9,100,14.6,100,12.6,100,0.0,100,3.6,100,,-1,,-1,,-1,,-1,,-1,,-1,,-1,,-1,1015.0,100,11.5,100,187,100,13.7,100,5,100,-0.2,1,8,1,1015.0,1,1015.0,100,1015.0,100,11.5,100,11.5,100,187,100,191,100,13.7,100,13.3,100
2021-10-17T02:30:00Z,44488,9302000,EAST CHEDABUCTO BAY,0,45.445,-60.9538,18,2021-10-17T02:30:00.000Z,110,2021-10-17T02:33:35.382Z,45.44548,100,-60.95375,100,13.8,100,14.6,100,12.6,100,0.0,100,3.6,100,,-1,,-1,,-1,,-1,,-1,,-1,,-1,,-1,1015.0,100,11.9,100,183,100,14.0,100,5,100,-0.2,1,8,1,1015.0,1,1015.0,100,1015.0,100,11.9,100,11.9,100,183,100,187,100,14.0,100,14.0,100
2021-10-17T02:40:00Z,44488,9302000,EAST CHEDABUCTO BAY,0,45.445,-60.9538,18,2021-10-17T02:40:00.000Z,110,2021-10-17T02:44:33.981Z,45.44547,100,-60.95373000000001,100,13.8,100,14.6,100,12.6,100,0.0,100,3.6,100,,-1,,-1,,-1,,-1,,-1,,-1,,-1,,-1,1015.0,100,11.5,100,178,100,13.3,100,5,100,-0.3,1,8,1,1015.0,1,1015.0,100,1015.0,100,11.5,100,11.5,100,178,100,182,100,13.3,100,13.7,100
2021-10-17T02:50:00Z,44488,9302000,EAST CHEDABUCTO BAY,0,45.445,-60.9538,18,2021-10-17T02:50:00.000Z,110,2021-10-17T02:54:36.429Z,45.44552,100,-60.95377,100,13.9,100,14.6,100,12.6,100,0.0,100,3.6,100,,-1,,-1,,-1,,-1,,-1,,-1,,-1,,-1,1015.0,100,11.5,100,182,100,13.3,100,5,100,-0.3,1,8,1,1015.0,1,1015.0,100,1015.0,100,11.5,100,11.5,100,182,100,186,100,13.3,100,13.3,100
2021-10-17T03:00:00Z,44488,9302000,EAST CHEDABUCTO BAY,0,45.445,-60.9538,18,2021-10-17T03:00:00.000Z,108,2021-10-17T03:04:52.420Z,45.44552,100,-60.95377,100,13.9,100,14.6,100,12.6,100,0.0,100,3.6,100,0.2,100,0.5,100,6.9,100,0.3,100,0.4,100,7.8,100,4.8,100,10.5,100,1014.9,100,14.4,100,183,100,16.9,100,5,100,-0.4,1,8,1,1014.9,1,1014.9,100,1014.9,100,14.4,100,14.8,100,183,100,188,100,16.9,100,16.9,100
2021-10-17T03:10:00Z,44488,9302000,EAST CHEDABUCTO BAY,0,45.445,-60.9538,18,2021-10-17T03:10:00.000Z,110,2021-10-17T03:16:50.465Z,45.44548,100,-60.95377,100,13.9,100,14.6,100,12.6,100,0.0,100,3.6,100,,-1,,-1,,-1,,-1,,-1,,-1,,-1,,-1,1014.8,100,13.7,100,178,100,15.1,100,5,100,-0.6,1,8,1,1014.8,1,1014.8,100,1014.8,100,13.7,100,13.7,100,178,100,183,100,15.1,100,15.5,100
2021-10-17T03:20:00Z,44488,9302000,EAST CHEDABUCTO BAY,0,45.445,-60.9538,18,2021-10-17T03:20:00.000Z,110,2021-10-17T03:23:51.848Z,45.44547,100,-60.95377,100,13.9,100,14.6,100,12.6,100,0.0,100,3.6,100,,-1,,-1,,-1,,-1,,-1,,-1,,-1,,-1,1014.8,100,14.0,100,179,100,16.6,100,5,100,-0.5,1,7,1,1014.8,1,1014.8,100,1014.8,100,14.0,100,14.0,100,179,100,183,100,16.6,100,16.6,100
2021-10-17T03:30:00Z,44488,9302000,EAST CHEDABUCTO BAY,0,45.445,-60.9538,18,2021-10-17T03:30:00.000Z,110,2021-10-17T03:33:49.674Z,45.4455,100,-60.95377,100,14.0,100,14.6,100,12.6,100,0.0,100,3.6,100,,-1,,-1,,-1,,-1,,-1,,-1,,-1,,-1,1014.8,100,14.8,100,181,100,18.0,100,5,100,-0.6,1,6,1,1014.8,1,1014.8,100,1014.8,100,14.8,100,14.8,100,181,100,185,100,18.0,100,18.0,100
2021-10-17T03:40:00Z,44488,9302000,EAST CHEDABUCTO BAY,0,45.445,-60.9538,18,2021-10-17T03:40:00.000Z,110,2021-10-17T03:43:51.100Z,45.4455,100,-60.95378,100,14.0,100,14.7,100,12.6,100,0.0,100,3.6,100,,-1,,-1,,-1,,-1,,-1,,-1,,-1,,-1,1014.8,100,14.8,100,181,100,17.3,100,5,100,-0.7,1,6,1,1014.8,1,1014.8,100,1014.8,100,14.8,100,14.8,100,181,100,185,100,17.3,100,17.6,100
2021-10-17T03:50:00Z,44488,9302000,EAST CHEDABUCTO BAY,0,45.445,-60.9538,18,2021-10-17T03:50:00.000Z,110,2021-10-17T03:53:59.571Z,45.44552,100,-60.95378,100,14.1,100,14.7,100,12.6,100,0.0,100,3.6,100,,-1,,-1,,-1,,-1,,-1,,-1,,-1,,-1,1014.7,100,15.5,100,183,100,17.6,100,5,100,-0.7,1,7,1,1014.7,1,1014.7,100,1014.7,100,15.5,100,15.8,100,183,100,187,100,17.6,100,17.6,100
2021-10-17T04:00:00Z,44488,9302000,EAST CHEDABUCTO BAY,0,45.445,-60.9538,18,2021-10-17T04:00:00.000Z,108,2021-10-17T04:03:59.253Z,45.445479999999996,100,-60.9538,100,14.1,100,14.7,100,12.6,100,0.0,100,3.6,100,0.2,100,0.5,100,6.0,100,0.3,100,0.4,100,6.9,100,4.2,100,11.1,100,1014.7,100,14.4,100,187,100,16.6,100,5,100,-0.7,1,7,1,1014.7,1,1014.7,100,1014.7,100,14.4,100,14.4,100,187,100,191,100,16.6,100,16.9,100
2021-10-17T04:10:00Z,44488,9302000,EAST CHEDABUCTO BAY,0,45.445,-60.9538,18,2021-10-17T04:10:00.000Z,110,2021-10-17T04:16:02.339Z,45.4455,100,-60.9538,100,14.0,100,14.7,100,12.6,100,0.0,100,3.6,100,,-1,,-1,,-1,,-1,,-1,,-1,,-1,,-1,1014.6,100,13.0,100,171,100,15.5,100,5,100,-0.7,1,8,1,1014.6,1,1014.6,100,1014.6,100,13.0,100,13.3,100,171,100,175,100,15.5,100,15.5,100
2021-10-17T04:20:00Z,44488,9302000,EAST CHEDABUCTO BAY,0,45.445,-60.9538,18,2021-10-17T04:20:00.000Z,110,2021-10-17T04:23:05.753Z,45.4455,100,-60.95378,100,14.0,100,14.7,100,12.6,100,0.0,100,3.6,100,,-1,,-1,,-1,,-1,,-1,,-1,,-1,,-1,1014.6,100,14.0,100,171,100,17.3,100,5,100,-0.7,1,7,1,1014.6,1,1014.6,100,1014.6,100,14.0,100,13.7,100,171,100,174,100,17.3,100,16.9,100
2021-10-17T04:30:00Z,44488,9302000,EAST CHEDABUCTO BAY,0,45.445,-60.9538,18,2021-10-17T04:30:00.000Z,110,2021-10-17T04:34:10.207Z,45.4455,100,-60.9538,100,14.0,100,14.7,100,12.6,100,0.0,100,3.6,100,,-1,,-1,,-1,,-1,,-1,,-1,,-1,,-1,1014.7,100,15.1,100,182,100,17.3,100,5,100,-0.4,1,8,1,1014.7,1,1014.7,100,1014.7,100,15.1,100,14.4,100,182,100,185,100,17.3,100,16.9,100
2021-10-17T04:40:00Z,44488,9302000,EAST CHEDABUCTO BAY,0,45.445,-60.9538,18,2021-10-17T04:40:00.000Z,110,2021-10-17T04:44:10.543Z,45.4455,100,-60.9538,100,14.0,100,14.7,100,12.6,100,0.0,100,3.6,100,,-1,,-1,,-1,,-1,,-1,,-1,,-1,,-1,1014.6,100,14.8,100,179,100,16.9,100,5,100,-0.4,1,8,1,1014.6,1,1014.6,100,1014.6,100,14.8,100,14.0,100,179,100,182,100,16.9,100,16.2,100
2021-10-17T04:50:00Z,44488,9302000,EAST CHEDABUCTO BAY,0,45.445,-60.9538,18,2021-10-17T04:50:00.000Z,110,2021-10-17T04:55:09.755Z,45.4455,100,-60.95381999999999,100,14.1,100,14.7,100,12.5,100,0.0,100,3.6,100,,-1,,-1,,-1,,-1,,-1,,-1,,-1,,-1,1014.5,100,14.4,100,170,100,17.3,100,5,100,-0.6,1,8,1,1014.5,1,1014.5,100,1014.5,100,14.4,100,13.7,100,170,100,173,100,17.3,100,16.6,100
2021-10-17T05:00:00Z,44488,9302000,EAST CHEDABUCTO BAY,0,45.445,-60.9538,18,2021-10-17T05:00:00.000Z,108,2021-10-17T05:04:18.439Z,45.44552,100,-60.95381999999999,100,14.1,100,14.7,100,12.6,100,0.0,100,3.6,100,0.2,100,0.5,100,5.3,100,0.3,100,0.4,100,5.7,100,3.8,100,10.0,100,1014.3,100,14.4,100,161,100,16.9,100,5,100,-0.9,1,8,1,1014.3,1,1014.3,100,1014.3,100,14.4,100,13.7,100,161,100,164,100,16.9,100,16.2,100
2021-10-17T05:10:00Z,44488,9302000,EAST CHEDABUCTO BAY,0,45.445,-60.9538,18,2021-10-17T05:10:00.000Z,110,2021-10-17T05:16:23.033Z,45.44553,100,-60.95383,100,14.1,100,14.7,100,12.6,100,0.0,100,3.6,100,,-1,,-1,,-1,,-1,,-1,,-1,,-1,,-1,1014.1,100,14.8,100,141,100,17.6,100,5,100,-1.0,1,8,1,1014.1,1,1014.1,100,1014.1,100,14.8,100,14.0,100,141,100,145,100,17.6,100,16.9,100
2021-10-17T05:20:00Z,44488,9302000,EAST CHEDABUCTO BAY,0,45.445,-60.9538,18,2021-10-17T05:20:00.000Z,110,2021-10-17T05:23:17.120Z,45.4455,100,-60.95383,100,14.2,100,14.7,100,12.6,100,0.0,100,3.6,100,,-1,,-1,,-1,,-1,,-1,,-1,,-1,,-1,1014.0,100,16.2,100,146,100,18.4,100,5,100,-1.0,1,8,1,1014.0,1,1014.0,100,1014.0,100,16.2,100,15.5,100,146,100,150,100,18.4,100,18.0,100
2021-10-17T05:30:00Z,44488,9302000,EAST CHEDABUCTO BAY,0,45.445,-60.9538,18,2021-10-17T05:30:00.000Z,110,2021-10-17T05:33:29.584Z,45.44552,100,-60.95385,100,14.2,100,14.7,100,12.6,100,0.0,100,3.6,100,,-1,,-1,,-1,,-1,,-1,,-1,,-1,,-1,1014.1,100,15.8,100,155,100,18.4,100,5,100,-0.9,1,8,1,1014.1,1,1014.1,100,1014.1,100,15.8,100,15.1,100,155,100,158,100,18.4,100,17.6,100
2021-10-17T05:40:00Z,44488,9302000,EAST CHEDABUCTO BAY,0,45.445,-60.9538,18,2021-10-17T05:40:00.000Z,110,2021-10-17T05:43:30.359Z,45.4455,100,-60.9538,100,14.3,100,14.7,100,12.5,100,0.0,100,3.6,100,,-1,,-1,,-1,,-1,,-1,,-1,,-1,,-1,1014.2,100,15.5,100,160,100,18.7,100,5,100,-0.8,1,8,1,1014.2,1,1014.2,100,1014.1,100,15.5,100,15.1,100,160,100,163,100,18.7,100,19.1,100
2021-10-17T05:50:00Z,44488,9302000,EAST CHEDABUCTO BAY,0,45.445,-60.9538,18,2021-10-17T05:50:00.000Z,110,2021-10-17T05:54:28.841Z,45.4455,100,-60.9538,100,14.4,100,14.7,100,12.5,100,0.0,100,3.6,100,,-1,,-1,,-1,,-1,,-1,,-1,,-1,,-1,1014.1,100,17.6,100,165,100,21.2,100,5,100,-0.9,1,8,1,1014.1,1,1014.1,100,1014.1,100,17.6,100,16.9,100,165,100,168,100,21.2,100,20.9,100
2021-10-17T06:00:00Z,44488,9302000,EAST CHEDABUCTO BAY,0,45.445,-60.9538,18,2021-10-17T06:00:00.000Z,108,2021-10-17T06:05:03.258Z,45.4455,100,-60.95383,100,14.4,100,14.7,100,12.5,100,0.0,100,3.6,100,0.2,100,0.5,100,5.1,100,0.3,100,0.4,100,6.5,100,3.9,100,10.5,100,1014.1,100,18.7,100,168,100,21.6,100,5,100,-0.8,1,7,1,1014.1,1,1014.1,100,1014.1,100,18.7,100,18.0,100,168,100,171,100,21.6,100,21.2,100
2021-10-17T06:10:00Z,44488,9302000,EAST CHEDABUCTO BAY,0,45.445,-60.9538,18,2021-10-17T06:10:00.000Z,110,2021-10-17T06:17:03.149Z,45.4455,100,-60.95383,100,14.3,100,14.7,100,12.6,100,0.0,100,3.6,100,,-1,,-1,,-1,,-1,,-1,,-1,,-1,,-1,1014.0,100,18.0,100,172,100,20.5,100,5,100,-0.8,1,6,1,1014.0,1,1014.0,100,1014.0,100,18.0,100,17.3,100,172,100,175,100,20.5,100,20.5,100
2021-10-17T06:20:00Z,44488,9302000,EAST CHEDABUCTO BAY,0,45.445,-60.9538,18,2021-10-17T06:20:00.000Z,110,2021-10-17T06:24:00.556Z,45.44552,100,-60.95381999999999,100,14.3,100,14.7,100,12.6,100,0.0,100,3.6,100,,-1,,-1,,-1,,-1,,-1,,-1,,-1,,-1,1014.0,100,17.6,100,170,100,20.5,100,5,100,-0.9,1,6,1,1014.0,1,1014.0,100,1014.0,100,17.6,100,16.9,100,170,100,173,100,20.5,100,19.8,100
2021-10-17T06:30:00Z,44488,9302000,EAST CHEDABUCTO BAY,0,45.445,-60.9538,18,2021-10-17T06:30:00.000Z,110,2021-10-17T06:34:01.559Z,45.44548,100,-60.95385,100,14.2,100,14.7,100,12.6,100,0.0,100,3.6,100,,-1,,-1,,-1,,-1,,-1,,-1,,-1,,-1,1013.8,100,16.9,100,165,100,20.5,100,5,100,-1.0,1,8,1,1013.8,1,1013.8,100,1013.8,100,16.9,100,16.2,100,165,100,169,100,20.5,100,19.4,100
2021-10-17T06:40:00Z,44488,9302000,EAST CHEDABUCTO BAY,0,45.445,-60.9538,18,2021-10-17T06:40:00.000Z,110,2021-10-17T06:43:03.946Z,45.4455,100,-60.95383,100,14.2,100,14.7,100,12.5,100,0.0,100,3.6,100,,-1,,-1,,-1,,-1,,-1,,-1,,-1,,-1,1013.6,100,17.6,100,158,100,20.9,100,5,100,-1.2,1,8,1,1013.6,1,1013.6,100,1013.5,100,17.6,100,16.9,100,158,100,161,100,20.9,100,20.5,100
2021-10-17T06:50:00Z,44488,9302000,EAST CHEDABUCTO BAY,0,45.445,-60.9538,18,2021-10-17T06:50:00.000Z,110,2021-10-17T06:53:06.453Z,45.44553,100,-60.95383,100,14.2,100,14.7,100,12.5,100,0.0,100,3.6,100,,-1,,-1,,-1,,-1,,-1,,-1,,-1,,-1,1013.3,100,20.2,100,156,100,24.5,100,5,100,-1.4,1,8,1,1013.3,1,1013.3,100,1013.3,100,20.2,100,19.4,100,156,100,160,100,24.5,100,23.4,100
2021-10-17T07:00:00Z,44488,9302000,EAST CHEDABUCTO BAY,0,45.445,-60.9538,18,2021-10-17T07:00:00.000Z,108,2021-10-17T07:03:14.332Z,45.44553,100,-60.95385,100,14.3,100,14.7,100,12.5,100,0.0,100,3.6,100,0.2,100,0.5,100,4.9,100,0.3,100,0.4,100,5.8,100,3.5,100,10.5,100,1013.2,100,21.6,100,152,100,24.5,100,5,100,-1.5,1,8,1,1013.2,1,1013.2,100,1013.2,100,21.6,100,20.9,100,152,100,156,100,24.5,100,23.8,100
2021-10-17T07:10:00Z,44488,9302000,EAST CHEDABUCTO BAY,0,45.445,-60.9538,18,2021-10-17T07:10:00.000Z,110,2021-10-17T07:16:20.783Z,45.4455,100,-60.95385,100,14.4,100,14.7,100,12.6,100,0.0,100,3.6,100,,-1,,-1,,-1,,-1,,-1,,-1,,-1,,-1,1013.1,100,22.0,100,152,100,26.6,100,5,100,-1.5,1,8,1,1013.1,1,1013.1,100,1013.1,100,22.0,100,20.9,100,152,100,155,100,26.6,100,25.2,100
2021-10-17T07:20:00Z,44488,9302000,EAST CHEDABUCTO BAY,0,45.445,-60.9538,18,2021-10-17T07:20:00.000Z,110,2021-10-17T07:23:24.023Z,45.44552,100,-60.953869999999995,100,14.4,100,14.7,100,12.6,100,0.0,100,3.6,100,,-1,,-1,,-1,,-1,,-1,,-1,,-1,,-1,1013.0,100,20.9,100,151,100,24.8,100,5,100,-1.6,1,8,1,1013.0,1,1013.0,100,1013.0,100,20.9,100,19.8,100,151,100,155,100,24.8,100,23.8,100
2021-10-17T07:30:00Z,44488,9302000,EAST CHEDABUCTO BAY,0,45.445,-60.9538,18,2021-10-17T07:30:00.000Z,110,2021-10-17T07:33:25.890Z,45.44553,100,-60.95383,100,14.4,100,14.7,100,12.5,100,0.0,100,3.6,100,,-1,,-1,,-1,,-1,,-1,,-1,,-1,,-1,1013.0,100,22.7,100,153,100,25.6,100,5,100,-1.7,1,8,1,1013.0,1,1013.0,100,1013.0,100,22.7,100,22.0,100,153,100,156,100,25.6,100,24.8,100
2021-10-17T07:40:00Z,44488,9302000,EAST CHEDABUCTO BAY,0,45.445,-60.9538,18,2021-10-17T07:40:00.000Z,110,2021-10-17T07:44:33.137Z,45.445570000000004,100,-60.953869999999995,100,14.4,100,14.7,100,12.5,100,0.0,100,3.6,100,,-1,,-1,,-1,,-1,,-1,,-1,,-1,,-1,1012.9,100,23.0,100,154,100,28.4,100,5,100,-1.7,1,8,1,1012.9,1,1012.9,100,1012.9,100,23.0,100,22.0,100,154,100,158,100,28.4,100,27.4,100
2021-10-17T07:50:00Z,44488,9302000,EAST CHEDABUCTO BAY,0,45.445,-60.9538,18,2021-10-17T07:50:00.000Z,110,2021-10-17T07:53:29.461Z,45.44552,100,-60.95385,100,14.4,100,14.7,100,12.5,100,0.0,100,3.6,100,,-1,,-1,,-1,,-1,,-1,,-1,,-1,,-1,1012.8,100,24.1,100,159,100,28.4,100,5,100,-1.6,1,8,1,1012.8,1,1012.8,100,1012.8,100,24.1,100,23.0,100,159,100,162,100,28.4,100,27.0,100
2021-10-17T08:00:00Z,44488,9302000,EAST CHEDABUCTO BAY,0,45.445,-60.9538,18,2021-10-17T08:00:00.000Z,108,2021-10-17T08:03:20.689Z,45.44553,100,-60.95383,100,14.4,100,14.7,100,12.5,100,0.0,100,3.6,100,0.3,100,0.8,100,3.6,100,0.4,100,0.5,100,4.0,100,3.0,100,10.5,100,1012.9,100,25.9,100,164,100,31.0,100,5,100,-1.4,1,7,1,1012.9,1,1012.9,100,1012.9,100,25.9,100,24.5,100,164,100,167,100,31.0,100,30.6,100
2021-10-17T08:10:00Z,44488,9302000,EAST CHEDABUCTO BAY,0,45.445,-60.9538,18,2021-10-17T08:10:00.000Z,110,2021-10-17T08:16:34.693Z,45.44555,100,-60.95383,100,14.4,100,14.7,100,12.5,100,0.0,100,3.6,100,,-1,,-1,,-1,,-1,,-1,,-1,,-1,,-1,1012.9,100,26.6,100,166,100,32.0,100,5,100,-1.1,1,8,1,1012.9,1,1012.9,100,1012.9,100,26.6,100,25.6,100,166,100,169,100,32.0,100,31.0,100
2021-10-17T08:20:00Z,44488,9302000,EAST CHEDABUCTO BAY,0,45.445,-60.9538,18,2021-10-17T08:20:00.000Z,110,2021-10-17T08:23:45.875Z,45.44553,100,-60.9538,100,14.4,100,14.7,100,12.5,100,0.0,100,3.6,100,,-1,,-1,,-1,,-1,,-1,,-1,,-1,,-1,1012.9,100,26.3,100,167,100,31.0,100,5,100,-1.2,1,8,1,1012.9,1,1012.9,100,1012.8,100,26.3,100,25.2,100,167,100,170,100,31.0,100,29.5,100
2021-10-17T08:30:00Z,44488,9302000,EAST CHEDABUCTO BAY,0,45.445,-60.9538,18,2021-10-17T08:30:00.000Z,110,2021-10-17T08:33:49.122Z,45.44555,100,-60.95381999999999,100,14.4,100,14.7,100,12.5,100,0.0,100,3.6,100,,-1,,-1,,-1,,-1,,-1,,-1,,-1,,-1,1012.8,100,27.7,100,170,100,31.3,100,5,100,-1.3,1,6,1,1012.8,1,1012.8,100,1012.8,100,27.7,100,26.3,100,170,100,173,100,31.3,100,30.2,100
2021-10-17T08:40:00Z,44488,9302000,EAST CHEDABUCTO BAY,0,45.445,-60.9538,18,2021-10-17T08:40:00.000Z,110,2021-10-17T08:43:46.557Z,45.44552,100,-60.95372,100,14.4,100,14.7,100,12.5,100,0.0,100,3.6,100,,-1,,-1,,-1,,-1,,-1,,-1,,-1,,-1,1012.6,100,27.7,100,166,100,33.1,100,5,100,-1.5,1,6,1,1012.6,1,1012.6,100,1012.6,100,27.7,100,26.6,100,166,100,169,100,33.1,100,32.0,100
2021-10-17T08:50:00Z,44488,9302000,EAST CHEDABUCTO BAY,0,45.445,-60.9538,18,2021-10-17T08:50:00.000Z,110,2021-10-17T08:53:46.666Z,45.44555,100,-60.9538,100,14.4,100,14.7,100,12.5,100,0.0,100,3.6,100,,-1,,-1,,-1,,-1,,-1,,-1,,-1,,-1,1012.5,100,27.0,100,161,100,32.4,100,5,100,-1.6,1,6,1,1012.5,1,1012.5,100,1012.5,100,27.0,100,25.9,100,161,100,165,100,32.4,100,31.3,100
2021-10-17T09:00:00Z,44488,9302000,EAST CHEDABUCTO BAY,0,45.445,-60.9538,18,2021-10-17T09:00:00.000Z,108,2021-10-17T09:04:47.690Z,45.44553,100,-60.95375,100,14.4,100,14.7,100,12.5,100,0.0,100,3.6,100,0.3,100,0.8,100,4.1,100,0.5,100,0.6,100,4.5,100,3.3,100,10.5,100,1012.4,100,27.7,100,164,100,33.5,100,5,100,-1.7,1,6,1,1012.4,1,1012.4,100,1012.4,100,27.7,100,26.3,100,164,100,167,100,33.5,100,32.4,100
2021-10-17T09:10:00Z,44488,9302000,EAST CHEDABUCTO BAY,0,45.445,-60.9538,18,2021-10-17T09:10:00.000Z,110,2021-10-17T09:16:54.541Z,45.44552,100,-60.95375,100,14.4,100,14.7,100,12.5,100,0.0,100,3.6,100,,-1,,-1,,-1,,-1,,-1,,-1,,-1,,-1,1012.2,100,29.2,100,162,100,35.3,100,5,100,-1.8,1,6,1,1012.2,1,1012.2,100,1012.2,100,29.2,100,27.7,100,162,100,165,100,35.3,100,33.5,100
2021-10-17T09:20:00Z,44488,9302000,EAST CHEDABUCTO BAY,0,45.445,-60.9538,18,2021-10-17T09:20:00.000Z,110,2021-10-17T09:23:50.821Z,45.44553,100,-60.9538,100,14.4,100,14.7,100,12.5,100,0.0,100,3.6,100,,-1,,-1,,-1,,-1,,-1,,-1,,-1,,-1,1012.3,100,28.4,100,160,100,34.9,100,5,100,-1.7,1,6,1,1012.3,1,1012.3,100,1012.3,100,28.4,100,27.0,100,160,100,164,100,34.9,100,33.1,100
2021-10-17T09:30:00Z,44488,9302000,EAST CHEDABUCTO BAY,0,45.445,-60.9538,18,2021-10-17T09:30:00.000Z,110,2021-10-17T09:35:51.609Z,45.44553,100,-60.9538,100,14.4,100,14.7,100,12.5,100,0.0,100,3.6,100,,-1,,-1,,-1,,-1,,-1,,-1,,-1,,-1,1012.1,100,27.7,100,160,100,34.6,100,5,100,-1.7,1,6,1,1012.1,1,1012.1,100,1012.1,100,27.7,100,26.3,100,160,100,163,100,34.6,100,32.8,100